Home > Weather > Albany > Past weeks

Flag for USA Past Weather in Albany, New York, USA — Yesterday and Last 2 Weeks

Now
83 °F

Passing clouds.


Feels Like: 83 °F
Forecast: 67 / 91 °F
Wind: 5 mph from Northwest

Location: Albany County Airport

Current Time: Jul 27, 2016 at 9:08:23 PM

Latest Report: Jul 27, 2016 at 7:51 PM


Visibility: 10 mi

Pressure: 29.88 "Hg

Humidity: 48%

Dew Point: 61 °F

Location of AlbanyLocation

Past Weather in Albany — Graph

°F

Albany Temperature Yesterday

Maximum temperature yesterday: 87 °F (at 2:51 PM)
Minimum temperature yesterday: 66 °F (at 4:51 AM)
Average temperature yesterday: 77 °F

High & Low Weather Summary for the Past Weeks

 TemperatureHumidityPressure
High93 °F (Jul 22, 2:51 PM)97% (Jul 15, 3:51 AM)30.25 "Hg (Jul 15, 3:51 AM)
Low54 °F (Jul 20, 5:51 AM)32% (Jul 27, 2:51 PM)29.72 "Hg (Jul 14, 3:51 PM)
Average76 °F65%29.96 "Hg
* Reported Jul 12 7:51 PM — Jul 27 7:51 PM, Albany, Weather by CustomWeather, © 2016

Note: Actual official high and low records may vary slightly from our data, if they occured in-between our weather recording intervals... More about our weather records

Advertising

Albany Weather History for the Previous 24 Hours

Scroll right to see more
 ConditionsComfort  
Time TempWeatherWind HumidityBarometerVisibility
7:51 PM
Wed, Jul 27
83 °FPassing clouds.5 mph48%29.88 "Hg10 mi
6:51 PM87 °FPassing clouds.7 mph40%29.88 "Hg10 mi
5:51 PM89 °FPassing clouds.8 mph36%29.87 "Hg10 mi
4:51 PM89 °FPassing clouds.8 mph34%29.89 "Hg10 mi
3:51 PM89 °FPassing clouds.6 mph34%29.90 "Hg10 mi
2:51 PM89 °FPassing clouds.7 mph32%29.91 "Hg10 mi
1:51 PM88 °FPassing clouds.7 mph34%29.92 "Hg10 mi
12:51 PM84 °FScattered clouds.12 mph43%29.94 "Hg10 mi
11:51 AM84 °FPassing clouds.No wind46%29.94 "Hg10 mi
10:51 AM81 °FPassing clouds.No wind51%29.95 "Hg10 mi
9:51 AM79 °FSunny.6 mph52%29.96 "Hg10 mi
8:51 AM77 °FSunny.3 mph54%29.96 "Hg10 mi
7:51 AM72 °FSunny.5 mph71%29.96 "Hg10 mi
6:51 AM67 °FPassing clouds.No wind81%29.96 "Hg10 mi
5:51 AM64 °FPassing clouds.No wind84%29.95 "Hg10 mi
4:51 AM66 °FPassing clouds.3 mph78%29.93 "Hg10 mi
3:51 AM64 °FPassing clouds.No wind84%29.94 "Hg10 mi
2:51 AM65 °FPassing clouds.No wind78%29.94 "Hg10 mi
1:51 AM67 °FClear.3 mph76%29.94 "Hg10 mi
12:51 AM70 °FClear.No wind68%29.94 "Hg10 mi
11:51 PM
Tue, Jul 26
74 °FPassing clouds.7 mph62%29.93 "Hg10 mi
10:51 PM75 °FPassing clouds.9 mph58%29.92 "Hg10 mi
9:51 PM76 °FPassing clouds.12 mph58%29.92 "Hg10 mi
Weather by CustomWeather, © 2016

See weather overviewHow to use our weather pages